Location: Chaumontel
(49.1247°N, 2.4324°E)
Time: 06:21:36
(UTC+00:00)

BREEZE-M DEB (TANK) - Pass Details

Date: 03 February 2023
Orbit: 428 x 13835 km, 45.9° (Epoch: 30 March)

Event Time Altitude Azimuth Distance (km) Brightness Sun altitude
Rises 17:08:30 0° 250° (WSW) 2,393 9.0 -3.6°
Reaches altitude 10° 17:10:14 10° 244° (WSW) 1,544 6.6 -3.9°
Maximum altitude 17:13:03 50° 166° (SSE) 696 2.9 -4.3°
Drops below altitude 10° 17:18:10 10° 91° (E) 2,789 5.3 -5.1°
Enters shadow 17:20:22 - 88° (E) 3,840 6.0 -5.5°
